Location: Cucq
(50.4773°N, 1.6202°E)
Time: 02:50:29
(UTC+00:00)

NOSS 3-1 (C) - Pass Details

Date: 07 August 2020
Orbit: 743 x 1466 km, 63.4° (Epoch: 22 September)

Event Time Altitude Azimuth Distance (km) Brightness Sun altitude
Exits shadow 02:17:32 16° 171° (S) 1,992 4.7 -16.6°
Maximum altitude 02:21:07 33° 116° (ESE) 1,420 4.4 -16.3°
Drops below altitude 10° 02:26:36 10° 55° (NE) 2,722 7.0 -15.8°
Sets 02:29:37 0° 46° (NE) 3,796 8.4 -15.5°
